FFL974 KVNY-KEGE

Flight info

Callsign FFL974
Flight time N/A
Altitude 45000
Route HARYS5 LAS TESSY AAVON1
Aircraft C750/M-SBDE3FGHRWXY/S

Departure

Time 2026-04-24 21:30
Airport Van Nuys Airport (KVNY)

Arrival

Time N/A
Airport Eagle County Regional Airport (KEGE)
Time Latitude Longitude Altitude Speed Heading
2026-04-24 21:08 34.20008 -118.48794 808 ft 0 kts 90°
2026-04-24 21:23 34.20012 -118.48779 808 ft 3 kts 51°
2026-04-24 21:23 34.20037 -118.48791 808 ft 6 kts 317°
2026-04-24 21:24 34.20079 -118.48840 808 ft 10 kts 308°
2026-04-24 21:24 34.20155 -118.48855 808 ft 14 kts 360°
2026-04-24 21:24 34.20267 -118.48856 808 ft 18 kts
2026-04-24 21:24 34.20398 -118.48854 808 ft 18 kts
2026-04-24 21:25 34.20475 -118.48848 808 ft 8 kts
2026-04-24 21:25 34.20498 -118.48845 808 ft 0 kts
2026-04-24 21:26 34.20507 -118.48844 808 ft 4 kts
2026-04-24 21:26 34.20627 -118.48834 808 ft 28 kts
2026-04-24 21:26 34.20851 -118.48822 808 ft 32 kts 356°
2026-04-24 21:26 34.21044 -118.48840 808 ft 27 kts 355°
2026-04-24 21:27 34.21218 -118.48858 808 ft 24 kts 355°
2026-04-24 21:27 34.21382 -118.48874 808 ft 23 kts 355°
2026-04-24 21:27 34.21535 -118.48891 808 ft 22 kts 350°
2026-04-24 21:27 34.21678 -118.48926 807 ft 20 kts 351°
2026-04-24 21:28 34.21814 -118.48944 807 ft 19 kts 356°
2026-04-24 21:28 34.21892 -118.48994 807 ft 9 kts 268°
2026-04-24 21:28 34.21888 -118.49053 807 ft 0 kts 266°
2026-04-24 21:29 34.21887 -118.49061 807 ft 4 kts 266°
2026-04-24 21:29 34.21876 -118.49117 807 ft 9 kts 220°
2026-04-24 21:29 34.21845 -118.49121 807 ft 0 kts 175°
2026-04-24 21:29 34.21774 -118.49114 808 ft 39 kts 176°
2026-04-24 21:30 34.21125 -118.49051 842 ft 130 kts 171°
2026-04-24 21:30 34.20167 -118.48982 1330 ft 151 kts 175°
2026-04-24 21:30 34.19050 -118.48877 1814 ft 164 kts 174°
2026-04-24 21:30 34.18013 -118.48366 2642 ft 165 kts 146°
2026-04-24 21:31 34.17220 -118.47294 3247 ft 182 kts 125°
2026-04-24 21:31 34.16541 -118.45885 3713 ft 205 kts 122°
2026-04-24 21:31 34.15780 -118.44345 4222 ft 224 kts 122°
2026-04-24 21:31 34.14929 -118.42639 4843 ft 249 kts 122°
2026-04-24 21:32 34.13996 -118.40758 5452 ft 273 kts 122°
2026-04-24 21:32 34.13021 -118.38756 6376 ft 277 kts 122°
2026-04-24 21:32 34.12106 -118.36677 7309 ft 287 kts 111°
2026-04-24 21:32 34.11987 -118.34279 8196 ft 300 kts 78°
2026-04-24 21:33 34.13016 -118.32125 9356 ft 298 kts 43°
2026-04-24 21:33 34.14787 -118.30835 10222 ft 301 kts 18°
2026-04-24 21:33 34.16908 -118.30517 10481 ft 320 kts 350°
2026-04-24 21:33 34.19007 -118.31486 10905 ft 325 kts 322°
2026-04-24 21:34 34.20529 -118.33418 11835 ft 316 kts 298°
2026-04-24 21:34 34.21458 -118.35828 12669 ft 316 kts 290°
2026-04-24 21:34 34.22296 -118.38260 13514 ft 318 kts 289°
2026-04-24 21:34 34.23325 -118.40651 14199 ft 328 kts 302°
2026-04-24 21:35 34.24982 -118.42589 14965 ft 337 kts 319°
2026-04-24 21:35 34.27105 -118.43842 15598 ft 347 kts 336°
2026-04-24 21:35 34.29516 -118.44447 16100 ft 356 kts 343°
2026-04-24 21:35 34.32008 -118.44736 16644 ft 373 kts 355°
2026-04-24 21:36 34.34681 -118.44064 16673 ft 409 kts 15°
2026-04-24 21:36 34.37195 -118.42365 17364 ft 420 kts 32°
2026-04-24 21:36 34.39489 -118.40118 18012 ft 427 kts 36°
2026-04-24 21:36 34.41771 -118.37770 18611 ft 433 kts 36°
2026-04-24 21:37 34.44100 -118.35428 19249 ft 436 kts 34°
2026-04-24 21:37 34.46439 -118.33133 19822 ft 442 kts 33°
2026-04-24 21:37 34.48826 -118.30765 20514 ft 446 kts 34°
2026-04-24 21:37 34.51227 -118.28342 21148 ft 451 kts 33°
2026-04-24 21:38 34.53661 -118.25895 21788 ft 455 kts 33°
2026-04-24 21:38 34.56121 -118.23441 22398 ft 461 kts 32°
2026-04-24 21:38 34.58612 -118.20949 22991 ft 466 kts 32°
2026-04-24 21:38 34.61113 -118.18425 23614 ft 471 kts 33°
2026-04-24 21:39 34.63415 -118.15491 24051 ft 487 kts 44°
2026-04-24 21:39 34.65378 -118.12094 24594 ft 497 kts 54°
2026-04-24 21:39 34.66922 -118.08298 25087 ft 506 kts 65°
2026-04-24 21:39 34.67982 -118.04189 25581 ft 514 kts 75°
2026-04-24 21:40 34.68705 -117.99915 26069 ft 518 kts 77°
2026-04-24 21:40 34.69274 -117.95569 26502 ft 522 kts 85°
2026-04-24 21:40 34.69517 -117.91155 27002 ft 525 kts 87°
2026-04-24 21:40 34.69784 -117.86712 27495 ft 529 kts 86°
2026-04-24 21:41 34.70079 -117.82238 27959 ft 533 kts 86°
2026-04-24 21:41 34.70354 -117.77722 28457 ft 537 kts 87°
2026-04-24 21:41 34.70558 -117.73227 28900 ft 541 kts 89°
2026-04-24 21:41 34.70722 -117.68639 29380 ft 544 kts 89°
2026-04-24 21:42 34.70912 -117.64019 29859 ft 549 kts 88°
2026-04-24 21:42 34.71107 -117.59370 30308 ft 552 kts 89°
2026-04-24 21:42 34.71289 -117.54693 30725 ft 555 kts 89°
2026-04-24 21:42 34.71815 -117.50028 31163 ft 558 kts 78°
2026-04-24 21:43 34.72845 -117.45496 31773 ft 556 kts 71°
2026-04-24 21:43 34.74044 -117.41018 32268 ft 557 kts 71°
2026-04-24 21:43 34.75221 -117.36595 32825 ft 556 kts 71°
2026-04-24 21:43 34.76405 -117.32113 33386 ft 556 kts 72°
2026-04-24 21:44 34.77589 -117.27640 33942 ft 556 kts 72°
2026-04-24 21:44 34.78775 -117.23169 34484 ft 554 kts 71°
2026-04-24 21:44 34.79952 -117.18717 35076 ft 551 kts 71°
2026-04-24 21:44 34.81116 -117.14295 35702 ft 548 kts 71°
2026-04-24 21:45 34.82277 -117.09882 36324 ft 545 kts 71°
2026-04-24 21:45 34.83431 -117.05498 36998 ft 542 kts 71°
2026-04-24 21:45 34.84575 -117.01140 37693 ft 538 kts 70°
2026-04-24 21:45 34.85709 -116.96808 38386 ft 535 kts 70°
2026-04-24 21:46 34.86834 -116.92506 38935 ft 532 kts 70°
2026-04-24 21:46 34.87958 -116.88203 39403 ft 532 kts 70°
2026-04-24 21:46 34.89079 -116.83907 39836 ft 532 kts 70°
2026-04-24 21:46 34.90184 -116.79660 40281 ft 532 kts 70°
2026-04-24 21:47 34.91436 -116.75429 40724 ft 529 kts 63°
2026-04-24 21:47 34.92540 -116.72728 41044 ft 525 kts 57°
2026-04-24 21:47 34.95289 -116.67923 41677 ft 516 kts 45°
2026-04-24 21:47 34.97736 -116.64736 42144 ft 512 kts 39°
2026-04-24 21:48 35.00271 -116.61772 42602 ft 510 kts 38°
2026-04-24 21:48 35.02811 -116.58752 43022 ft 512 kts 41°
2026-04-24 21:48 35.05200 -116.55512 43459 ft 514 kts 45°
2026-04-24 21:48 35.07513 -116.52213 44018 ft 510 kts 44°
2026-04-24 21:49 35.09912 -116.49039 44472 ft 507 kts 41°
2026-04-24 21:49 35.12370 -116.45953 44807 ft 507 kts 41°
2026-04-24 21:49 35.14802 -116.42776 44802 ft 516 kts 44°
2026-04-24 21:50 35.19686 -116.36144 44850 ft 531 kts 43°
2026-04-24 21:50 35.24804 -116.29455 44838 ft 545 kts 43°
2026-04-24 21:51 35.29943 -116.22534 44819 ft 552 kts 44°
2026-04-24 21:51 35.35122 -116.15674 44820 ft 552 kts 43°
2026-04-24 21:52 35.40310 -116.08710 44833 ft 553 kts 44°
2026-04-24 21:52 35.45509 -116.01759 44829 ft 552 kts 43°
2026-04-24 21:53 35.50694 -115.94796 44862 ft 552 kts 43°
2026-04-24 21:53 35.55879 -115.87821 44854 ft 553 kts 43°
2026-04-24 21:54 35.61042 -115.80865 44850 ft 553 kts 44°
2026-04-24 21:54 35.66212 -115.73847 44862 ft 553 kts 44°
2026-04-24 21:55 35.71333 -115.66757 44863 ft 554 kts 44°
2026-04-24 21:55 35.76487 -115.59692 44864 ft 553 kts 44°
2026-04-24 21:56 35.81580 -115.52642 44867 ft 554 kts 44°
2026-04-24 21:56 35.86710 -115.45556 44855 ft 554 kts 44°